Temperature
21 21 21 20 24 25 24 23 24 23 23 22 22 22 22 22 22 21 17 17 17 17 17 17 17 17 17 17 17 17 17 17 17 17 17 17 17 17 17 17 17 17 17 17 17 17 17 17 17
20 21 20 22 25 24 23 23 23 23 22 21 21 22 22 21 19 18 17 17 17 17 16 17 17 17 17 17 17 17 17 17 17 17 17 17 17 17 17 17 17 17 17 17 17 17 17 17 17
21 21 22 24 24 24 23 23 23 22 21 22 21 21 21 20 18 18 17 17 17 16 16 17 17 17 17 17 17 17 17 17 17 17 17 17 17 17 17 17 17 17 17 17 17 17 17 17 17
20 21 23 24 23 23 23 23 23 23 22 21 22 21 20 18 18 17 17 17 17 16 16 16 17 17 17 17 17 17 17 17 17 17 17 17 17 17 16 17 17 17 17 17 17 17 17 17 17
21 23 24 24 23 23 24 23 23 23 23 22 22 22 20 17 17 17 17 17 16 16 16 16 17 17 17 17 17 17 17 17 16 16 16 16 17 16 16 17 17 17 17 17 17 17 17 17 17
22 24 24 23 23 23 23 23 23 23 22 22 22 22 19 17 17 17 17 16 16 16 16 16 17 17 17 17 17 16 16 16 16 16 16 16 16 16 16 16 16 16 17 17 17 17 17 17 17
23 24 24 23 23 23 23 23 23 23 23 22 21 22 19 18 17 17 16 16 16 16 16 16 16 16 16 16 16 16 16 16 16 16 16 16 16 16 16 16 16 16 16 16 16 16 16 17 17
22 24 23 23 23 23 23 23 22 23 22 21 21 22 20 18 17 17 16 16 16 16 16 16 16 16 16 16 16 16 16 16 16 16 16 16 16 16 16 16 16 16 16 16 16 16 16 16 16
22 24 23 23 23 23 23 23 22 21 21 20 20 20 19 18 17 17 17 16 16 16 16 16 16 16 16 16 16 16 16 16 16 16 16 16 15 15 15 16 16 16 16 16 16 16 16 16 16
23 24 23 24 24 23 23 23 22 22 22 21 20 19 18 18 17 17 17 17 17 16 16 16 16 16 16 16 16 16 16 16 15 15 15 15 15 15 15 16 16 16 16 16 16 16 16 16 16
24 23 23 23 23 23 23 22 22 23 23 22 21 19 18 18 18 18 17 17 17 17 16 16 16 16 16 16 16 16 15 15 15 15 15 15 15 15 15 15 15 15 15 15 16 15 15 15 15
23 23 23 23 22 22 23 22 22 22 22 21 20 19 18 18 18 18 18 17 17 17 16 16 16 16 16 16 16 16 15 15 15 15 15 15 15 15 15 15 15 15 15 15 15 15 15 15 15
23 23 22 22 22 22 22 22 22 21 20 20 19 19 18 18 18 18 17 17 17 17 16 16 16 16 16 16 16 15 15 15 15 15 15 15 15 15 15 15 15 15 15 15 15 15 15 15 15
23 22 22 22 22 22 22 22 22 21 20 20 19 19 18 18 18 18 17 17 17 17 17 16 16 16 16 16 16 16 15 15 15 15 15 15 15 15 15 15 15 14 15 15 15 15 15 15 15
22 23 23 23 23 22 23 23 22 21 20 20 19 19 18 18 18 18 18 17 17 17 17 16 16 16 16 16 16 15 15 15 15 15 15 15 14 14 14 14 14 14 14 14 14 14 14 14 14
23 23 23 23 23 22 23 23 22 20 20 20 20 19 18 18 18 18 17 17 17 17 17 16 16 16 16 16 15 15 15 15 15 14 14 14 14 14 14 14 14 14 14 14 14 14 14 14 14
23 23 23 23 23 23 23 23 22 20 20 21 20 20 19 18 18 17 17 17 17 17 16 16 16 16 16 15 15 15 15 15 15 14 14 14 14 14 14 14 14 14 14 14 14 14 14 14 14
23 23 23 23 23 23 23 23 22 21 21 21 20 20 19 19 18 17 17 17 17 17 16 16 16 16 16 15 15 15 15 15 14 14 14 14 14 14 14 14 14 14 14 14 14 14 14 14 14
23 23 23 23 23 22 22 22 22 22 21 21 20 20 20 19 18 17 17 17 17 16 16 16 16 16 16 15 15 15 15 15 14 14 14 14 14 14 14 14 14 14 13 13 13 13 13 13 13
22 23 23 23 22 22 22 22 23 22 21 20 20 20 19 19 18 17 17 17 17 16 16 16 16 16 16 15 15 15 15 15 14 14 14 14 14 14 14 13 13 13 13 13 13 13 13 13 13
22 22 23 22 22 22 22 22 22 22 20 20 19 19 19 18 18 17 17 17 17 16 16 16 16 16 15 15 15 15 15 15 14 14 14 14 14 14 14 13 13 13 13 13 13 13 13 13 13
22 22 22 22 22 22 22 22 23 22 21 21 20 19 19 18 17 17 17 17 16 16 16 16 16 16 15 15 15 15 15 14 14 14 14 14 14 14 14 13 13 13 13 13 13 13 13 12 13
22 21 22 22 22 22 22 22 23 22 22 21 21 19 18 18 17 17 17 16 16 16 16 16 16 16 15 15 15 15 14 14 14 14 14 14 14 14 14 13 13 13 13 13 13 12 12 12 12
21 21 21 22 22 21 22 22 22 22 22 21 21 19 18 17 17 16 16 16 16 16 16 16 16 15 15 15 15 15 15 14 14 14 14 14 14 14 13 13 13 13 13 13 12 12 12 12 12
21 22 21 21 21 22 22 21 22 22 21 21 20 19 18 17 17 16 16 16 16 16 16 16 15 15 15 15 15 14 14 14 14 14 14 14 14 13 13 13 13 13 13 13 12 12 12 12 12
21 22 21 21 21 22 21 21 22 21 20 19 19 19 18 17 17 16 16 16 16 16 16 15 15 15 15 15 14 14 14 14 14 14 14 14 13 13 13 13 13 13 12 12 12 12 12 12 12
21 21 22 21 21 21 22 21 21 20 20 19 19 18 18 17 16 16 15 15 16 15 15 15 15 15 15 14 14 14 14 14 14 14 14 14 13 13 13 13 13 13 12 12 12 12 12 12 12
21 21 21 21 20 20 21 21 21 20 20 20 19 19 18 17 16 16 15 15 15 15 15 15 15 15 15 14 14 14 14 14 14 13 13 13 13 13 13 13 12 12 12 12 12 12 12 11 11
20 20 20 21 21 20 20 21 21 21 20 20 20 19 18 17 16 16 15 15 15 15 15 15 15 15 14 14 14 14 13 13 13 13 13 13 13 13 12 12 12 12 12 12 12 11 11 11 11
20 20 20 20 20 20 20 21 21 20 20 19 19 18 17 17 16 16 15 15 15 15 15 14 14 14 14 14 14 13 13 13 13 13 12 12 12 12 12 12 12 12 12 11 11 11 11 11 11
Wind_Speed
4 3 2 2 2 3 6 5 4 4 4 5 5 4 5 6 5 4 4 4 4 5 6 7 7 7 8 8 9 9 9 9 9 10 10 10 10 10 10 10 11 11 10 10 10 10 9 9 9
3 2 2 2 1 5 6 5 6 5 5 5 5 5 5 6 5 5 4 4 5 6 6 7 7 8 8 9 10 10 10 10 10 11 11 11 11 11 11 11 11 11 11 10 10 10 9 9 9
2 2 1 0 3 5 6 6 7 7 5 2 3 4 4 4 4 4 5 5 6 6 7 8 7 8 8 8 9 10 10 11 11 11 11 11 11 11 11 12 12 12 11 11 11 10 9 9 9
2 1 1 3 8 6 6 7 7 7 5 3 3 5 5 4 3 5 7 6 7 7 7 9 7 8 8 9 9 10 10 11 11 11 11 11 11 11 12 12 12 13 12 11 11 10 9 9 9
1 1 3 6 7 6 6 5 4 4 4 4 4 6 6 5 6 7 7 6 7 7 7 8 8 8 8 9 9 10 10 10 11 11 11 11 11 11 11 12 12 12 12 12 11 10 10 10 9
1 1 4 6 7 6 5 3 3 4 6 5 5 5 5 6 7 7 7 6 6 6 6 8 8 8 8 9 10 10 10 10 10 10 10 11 11 11 11 12 12 12 12 12 11 11 11 10 9
0 2 4 6 6 5 4 3 3 4 5 4 3 4 5 7 6 7 7 6 6 6 6 6 7 8 9 10 10 10 10 9 10 10 10 10 10 10 11 11 11 11 11 11 11 11 11 10 9
0 2 5 5 6 5 4 3 3 2 4 4 1 3 5 8 8 7 7 6 6 6 5 5 6 7 8 10 10 10 10 9 9 9 9 8 8 9 9 10 11 11 11 11 12 12 11 10 9
1 3 5 5 5 5 4 4 3 3 5 4 2 4 6 11 10 9 7 6 6 5 5 5 5 6 7 8 8 8 8 8 7 7 7 5 6 8 8 11 11 11 11 11 11 11 10 9 10
1 2 3 3 3 4 4 3 3 4 5 5 6 7 9 10 10 9 8 7 6 5 5 4 4 5 5 6 6 5 6 6 5 6 5 5 6 7 8 10 10 10 9 9 10 8 6 5 7
1 3 4 3 4 4 4 3 2 3 3 4 6 9 10 10 9 8 7 6 6 5 4 4 4 4 4 4 4 4 4 4 5 5 6 5 5 5 5 5 6 6 6 6 6 5 6 6 6
3 3 3 4 4 4 3 3 2 1 2 4 6 9 11 9 8 7 6 6 6 5 4 4 3 4 4 4 4 4 3 3 4 4 5 4 3 4 4 4 5 4 5 5 5 5 6 6 6
4 4 4 4 4 3 3 2 1 2 3 5 7 9 9 8 8 6 6 6 6 5 4 4 3 3 3 4 3 3 3 3 4 4 3 4 3 3 3 4 4 4 4 4 4 5 6 5 6
4 5 4 4 3 3 3 2 2 3 5 7 8 8 8 7 7 6 6 6 5 5 4 4 3 3 3 3 3 3 3 3 3 3 3 4 3 3 3 3 3 3 4 4 4 4 4 4 5
5 5 4 3 3 3 3 3 3 5 6 7 7 7 6 6 6 6 6 5 5 4 4 4 3 3 3 3 3 3 2 2 3 3 3 4 3 3 3 2 3 3 3 3 4 4 3 3 3
5 4 4 3 3 3 5 3 3 4 6 6 6 6 6 6 6 6 5 5 5 4 4 4 3 3 3 2 2 2 2 2 2 2 2 3 2 3 3 2 2 2 2 3 3 3 3 3 3
5 5 5 4 4 4 4 3 3 4 5 5 5 5 6 6 6 5 5 5 5 5 5 5 4 4 3 3 2 2 2 2 2 2 2 1 2 2 2 2 2 2 2 2 2 2 2 2 2
5 5 5 4 3 5 5 4 3 4 5 5 5 5 6 6 6 6 6 5 5 5 5 5 5 4 4 3 2 2 2 1 1 1 1 1 1 1 1 1 1 2 1 1 1 2 2 1 1
4 5 5 3 3 5 6 5 4 4 5 5 5 5 5 5 5 5 5 6 6 6 6 6 5 5 4 3 2 2 2 1 1 1 1 1 0 0 1 1 1 1 0 0 0 1 1 1 1
6 7 5 3 3 5 5 6 5 4 5 4 4 4 4 4 5 5 6 6 7 7 7 6 6 5 5 3 3 2 2 1 1 1 1 1 1 0 0 1 1 1 1 1 1 0 1 1 1
6 7 5 4 3 5 5 7 7 5 4 3 3 3 3 4 4 5 5 6 7 7 7 6 6 6 5 5 3 3 2 2 2 2 2 1 1 1 1 1 1 2 2 2 2 2 2 1 1
6 4 5 5 6 4 5 5 6 7 5 5 5 4 4 3 4 4 5 5 6 6 6 6 6 6 6 6 5 5 4 3 2 2 2 2 2 1 1 2 2 2 2 2 2 2 2 2 2
3 1 4 6 7 7 7 7 4 6 6 6 5 4 3 3 3 4 5 5 5 5 6 6 6 6 6 6 6 5 4 3 2 2 2 2 2 2 2 2 2 2 2 2 2 2 2 2 3
3 3 3 5 6 8 7 8 4 4 5 4 4 4 3 3 2 3 3 4 4 4 5 6 6 6 6 6 6 6 5 4 3 3 2 2 2 2 2 2 2 2 2 3 3 3 3 3 3
5 5 4 5 6 5 3 6 4 1 1 3 4 4 4 4 3 3 3 3 3 4 4 5 6 6 6 6 6 6 6 5 5 4 3 3 2 2 2 2 2 2 2 2 3 3 3 3 4
6 7 5 4 5 4 4 6 2 2 0 1 2 4 4 4 3 3 3 3 3 3 3 5 6 6 6 6 6 6 6 5 4 4 3 3 3 2 2 2 2 2 2 2 2 2 2 3 3
5 6 4 5 5 6 5 4 3 2 2 2 3 4 4 4 4 3 3 2 2 2 3 4 6 6 6 6 6 5 5 5 4 4 4 3 2 2 2 2 2 2 2 2 2 2 3 3 3
3 4 4 6 5 6 5 6 4 4 4 4 4 4 4 3 4 3 3 2 2 2 3 3 3 5 5 5 5 4 5 5 4 4 4 3 3 2 2 2 2 1 1 2 2 3 3 3 3
4 5 6 6 6 5 5 3 1 2 3 4 4 4 4 4 4 3 3 3 3 2 2 3 3 3 4 4 4 4 4 4 4 4 4 3 3 3 2 2 2 2 2 2 2 2 3 4 4
6 6 7 7 6 6 6 3 2 2 3 3 4 3 3 4 4 4 3 3 3 3 3 2 3 3 2 3 4 3 3 4 4 4 4 3 3 3 3 3 2 2 2 2 2 3 3 4 4
Wind_Direction
184 182 208 236 203 111 88 87 96 100 77 65 61 63 65 47 35 65 90 96 90 97 90 88 72 77 79 77 79 81 79 79 79 79 80 81 79 75 73 71 71 73 74 76 78 79 81 81 81
163 180 220 249 168 118 94 96 100 83 98 102 75 71 75 68 58 85 105 101 106 98 89 81 74 76 81 80 79 83 81 79 79 80 81 82 79 75 73 72 72 73 74 75 75 73 76 79 80
162 227 272 137 93 91 105 106 104 103 104 88 80 60 57 68 80 95 96 118 111 98 88 82 74 78 82 81 82 86 84 81 81 80 80 80 79 77 74 71 70 71 73 73 72 68 71 76 79
218 204 182 109 98 79 100 114 117 122 105 81 101 90 82 63 79 100 114 122 113 102 92 88 76 79 84 84 84 86 86 83 81 80 80 78 77 76 74 71 68 68 69 71 69 66 65 71 71
227 209 139 115 100 97 105 113 117 107 101 98 102 97 94 86 92 107 118 119 113 105 95 93 81 82 86 86 88 87 85 83 82 80 80 80 77 76 73 70 68 67 66 66 68 67 67 68 68
189 192 146 127 116 113 111 119 127 106 105 112 110 104 96 111 113 115 120 116 109 104 98 99 98 88 86 86 88 87 84 81 81 80 79 77 75 72 69 68 69 67 66 66 66 67 66 66 67
166 132 127 128 130 125 110 125 131 116 113 109 113 107 118 131 122 126 124 116 108 103 98 95 99 105 102 92 88 86 82 81 81 80 78 78 78 75 71 69 69 69 68 67 66 66 65 65 67
346 142 137 139 142 128 121 125 106 101 102 103 117 112 130 143 139 134 127 119 114 107 98 93 94 95 99 100 91 86 81 78 79 78 76 80 87 85 75 71 67 68 68 66 65 64 65 65 69
230 171 154 151 152 135 138 140 111 105 119 117 96 80 113 136 145 142 137 130 120 110 98 92 91 90 90 92 98 98 92 81 85 87 84 87 85 84 85 68 63 64 66 65 65 64 65 69 78
209 162 141 134 145 140 146 144 135 149 136 131 126 114 125 141 151 150 145 138 130 121 107 94 88 87 91 91 94 89 88 88 76 73 79 75 76 77 77 80 69 67 66 73 68 67 72 60 69
118 124 124 129 136 147 149 140 152 168 142 140 147 144 145 151 154 153 147 139 130 124 112 100 97 91 89 92 88 82 79 80 73 66 71 73 77 84 80 80 80 72 65 66 74 72 59 57 57
120 115 132 136 143 160 158 146 137 156 84 109 133 143 150 158 160 160 151 139 130 118 111 104 98 99 95 93 89 89 86 80 73 64 71 73 75 74 72 71 63 62 59 52 52 56 59 56 58
139 125 127 135 142 156 153 162 147 129 120 120 132 144 153 158 158 154 147 142 136 131 127 113 105 95 97 93 83 85 84 78 81 69 63 70 71 74 76 77 65 57 54 53 51 54 54 51 48
138 141 138 147 152 170 170 183 185 152 143 141 145 154 160 160 161 158 159 155 151 146 136 127 120 106 102 101 97 81 78 87 80 77 66 68 71 74 76 80 70 57 47 49 53 61 60 55 53
149 148 155 163 171 168 178 188 186 159 157 158 159 161 164 169 171 172 169 166 163 158 146 139 136 124 114 104 92 86 82 87 83 81 76 69 69 70 69 69 70 60 55 61 61 62 60 63 61
175 189 185 169 184 187 221 202 145 164 174 175 173 172 177 181 185 182 176 174 170 170 158 148 154 150 137 121 106 98 94 85 84 81 90 81 81 82 73 71 66 59 60 68 67 58 56 59 49
198 206 198 183 190 200 228 226 172 178 194 198 192 189 190 188 192 188 187 186 182 181 173 164 167 167 157 145 131 115 107 91 85 83 86 92 92 88 89 83 76 68 70 71 68 57 54 54 46
203 211 212 211 189 213 231 238 212 197 206 210 204 204 202 199 196 191 191 190 187 186 183 175 174 178 166 161 156 144 135 117 99 91 76 64 80 102 102 112 91 79 78 70 74 75 65 52 48
231 227 230 231 221 229 235 236 230 208 205 208 208 210 210 206 190 183 190 192 190 191 192 186 185 182 176 173 177 179 178 172 151 109 102 99 8 130 118 170 135 102 103 338 51 67 81 40 5
228 232 234 229 212 236 240 242 228 204 203 213 218 215 213 201 189 186 192 193 198 196 198 192 191 188 185 184 187 191 191 199 189 171 169 190 199 241 247 224 210 202 218 245 232 226 280 295 301
230 238 238 240 230 223 243 237 213 194 193 203 221 223 213 208 205 195 196 196 198 200 198 199 195 192 189 184 183 184 175 185 180 186 191 211 228 231 263 265 236 224 223 231 245 246 261 283 287
238 239 234 229 236 237 241 257 213 195 199 208 213 216 217 213 211 199 198 201 202 203 200 201 198 198 194 189 193 196 199 204 211 201 196 198 204 222 250 259 248 234 231 236 246 247 260 265 264
246 221 222 234 249 254 238 256 227 192 214 215 212 213 208 204 207 202 202 204 203 198 196 200 197 197 197 197 196 206 212 217 209 204 205 204 192 211 240 259 247 238 232 240 250 258 260 259 265
175 186 200 226 245 248 238 245 245 202 221 215 202 197 189 181 182 182 190 194 196 191 192 195 197 196 195 199 202 206 211 211 207 208 207 208 195 209 233 254 247 242 237 238 239 240 247 257 264
200 216 226 225 225 240 210 241 247 134 204 224 210 193 180 166 164 159 165 183 195 193 194 197 197 196 193 199 206 208 213 213 214 213 208 210 206 209 224 233 246 245 243 240 237 239 245 250 259
212 227 244 254 251 250 221 240 205 123 156 227 209 187 178 168 166 162 166 182 191 193 197 201 197 196 194 200 206 209 210 216 221 220 215 212 217 220 224 228 241 244 246 239 235 247 247 253 254
213 224 264 273 267 262 235 230 231 184 204 196 189 183 181 177 171 169 169 173 182 191 198 205 199 194 195 201 204 208 209 210 215 215 214 211 213 215 217 217 230 238 236 237 234 248 249 256 255
249 226 228 240 252 254 248 239 229 193 207 203 204 202 191 180 176 172 170 172 187 195 195 195 202 198 193 199 202 206 210 209 210 207 203 202 206 206 208 214 223 233 238 239 235 250 255 253 258
202 212 232 241 255 262 264 237 151 206 216 222 220 215 208 197 186 182 184 180 179 185 186 187 188 189 196 198 197 198 205 207 202 200 200 202 209 212 218 220 226 228 236 246 245 255 258 259 256
229 231 230 242 244 250 270 270 105 244 237 236 238 230 227 208 194 189 191 194 192 186 186 193 185 182 192 201 196 196 196 204 205 205 205 204 209 215 226 223 224 236 244 251 252 259 261 263 266
Height
1513 1513 1514 1515 1514 1513 1518 1520 1517 1519 1521 1524 1524 1523 1523 1525 1527 1534 1535 1532 1532 1533 1532 1532 1531 1531 1530 1530 1530 1529 1528 1527 1527 1527 1527 1527 1527 1526 1526 1526 1525 1525 1524 1524 1524 1524 1524 1524 1524
1514 1514 1516 1516 1511 1518 1523 1520 1520 1521 1524 1526 1526 1526 1526 1529 1531 1533 1533 1533 1533 1534 1533 1533 1532 1532 1532 1531 1531 1530 1530 1529 1528 1528 1528 1528 1528 1528 1528 1527 1527 1527 1526 1526 1525 1526 1525 1525 1525
1515 1515 1518 1513 1514 1518 1523 1521 1522 1525 1526 1526 1527 1528 1529 1532 1533 1534 1534 1534 1534 1535 1535 1534 1533 1533 1533 1533 1532 1532 1531 1531 1530 1530 1530 1530 1530 1529 1529 1529 1528 1528 1528 1527 1527 1527 1527 1527 1526
1516 1518 1518 1515 1520 1520 1520 1522 1524 1525 1527 1528 1528 1529 1532 1534 1535 1535 1534 1535 1536 1536 1536 1535 1534 1534 1534 1534 1534 1533 1533 1533 1532 1532 1532 1532 1532 1531 1531 1530 1530 1530 1529 1529 1528 1528 1528 1528 1528
1517 1517 1516 1519 1522 1522 1522 1524 1525 1524 1526 1528 1528 1530 1533 1535 1535 1535 1535 1536 1537 1537 1537 1536 1536 1536 1535 1535 1535 1535 1535 1534 1534 1534 1534 1534 1533 1533 1533 1532 1532 1531 1531 1530 1530 1530 1529 1529 1529
1519 1516 1517 1522 1524 1523 1524 1525 1526 1526 1527 1529 1530 1530 1535 1536 1536 1536 1537 1537 1538 1538 1538 1538 1537 1537 1537 1537 1537 1536 1536 1536 1536 1536 1535 1535 1535 1535 1534 1534 1533 1533 1532 1532 1531 1531 1531 1530 1530
1519 1515 1518 1521 1524 1524 1525 1526 1526 1526 1527 1530 1531 1531 1535 1537 1537 1537 1538 1538 1539 1539 1539 1540 1539 1539 1538 1538 1538 1538 1538 1538 1537 1537 1537 1537 1537 1536 1536 1535 1535 1534 1534 1533 1533 1532 1532 1531 1530
1519 1517 1520 1521 1524 1525 1526 1527 1528 1528 1529 1532 1532 1532 1535 1537 1537 1538 1538 1539 1540 1540 1541 1541 1541 1541 1541 1540 1539 1539 1539 1539 1539 1539 1538 1538 1538 1538 1538 1537 1536 1536 1535 1535 1535 1534 1533 1532 1532
1519 1518 1521 1522 1523 1524 1526 1527 1529 1530 1531 1532 1533 1534 1535 1536 1537 1538 1539 1540 1541 1541 1542 1542 1542 1542 1542 1542 1541 1541 1541 1540 1540 1540 1540 1540 1540 1540 1539 1539 1538 1538 1537 1537 1536 1536 1535 1534 1533
1519 1518 1520 1521 1521 1523 1526 1527 1528 1530 1530 1532 1534 1535 1535 1536 1538 1539 1540 1541 1541 1542 1543 1543 1543 1543 1543 1543 1543 1543 1542 1542 1542 1542 1542 1542 1542 1541 1541 1540 1540 1539 1539 1538 1538 1537 1537 1536 1536
1518 1519 1521 1522 1524 1525 1526 1528 1529 1528 1529 1531 1533 1535 1536 1537 1538 1539 1540 1541 1542 1543 1543 1544 1544 1544 1544 1544 1544 1543 1543 1543 1543 1543 1543 1543 1543 1543 1543 1542 1542 1541 1540 1540 1539 1539 1538 1538 1537
1520 1521 1522 1524 1525 1526 1527 1528 1529 1529 1530 1532 1533 1534 1536 1537 1538 1539 1540 1542 1543 1543 1544 1544 1544 1545 1545 1545 1544 1544 1544 1544 1544 1544 1544 1544 1543 1544 1543 1543 1543 1542 1542 1541 1541 1540 1540 1539 1539
1520 1522 1524 1525 1526 1527 1527 1528 1529 1530 1532 1533 1534 1535 1536 1537 1539 1540 1541 1542 1543 1543 1544 1544 1545 1545 1545 1545 1545 1545 1545 1545 1545 1544 1544 1545 1544 1544 1544 1544 1543 1543 1543 1542 1542 1541 1540 1540 1540
1521 1523 1524 1525 1526 1527 1527 1528 1529 1531 1532 1533 1534 1535 1537 1538 1539 1540 1541 1542 1543 1544 1544 1545 1545 1545 1545 1546 1546 1545 1545 1545 1545 1545 1545 1545 1545 1545 1545 1545 1544 1544 1543 1543 1542 1542 1541 1541 1540
1523 1523 1524 1525 1525 1526 1527 1527 1528 1530 1532 1533 1534 1536 1537 1538 1539 1540 1541 1542 1543 1544 1544 1545 1545 1545 1546 1546 1546 1546 1546 1546 1546 1546 1546 1546 1546 1546 1545 1545 1545 1545 1544 1544 1543 1543 1542 1542 1541
1521 1522 1524 1524 1525 1526 1527 1528 1528 1530 1531 1532 1534 1535 1536 1538 1538 1539 1540 1541 1543 1543 1544 1545 1545 1545 1545 1546 1545 1546 1546 1546 1546 1546 1546 1546 1546 1546 1546 1546 1545 1545 1545 1544 1544 1543 1543 1543 1542
1521 1523 1523 1524 1523 1524 1524 1525 1527 1530 1530 1531 1533 1534 1535 1537 1538 1539 1540 1541 1542 1543 1544 1544 1544 1545 1545 1545 1545 1545 1546 1545 1545 1545 1546 1546 1546 1546 1546 1546 1546 1545 1545 1545 1544 1544 1544 1543 1542
1523 1521 1522 1522 1521 1523 1524 1524 1525 1528 1529 1529 1531 1532 1534 1535 1536 1537 1539 1540 1541 1542 1543 1544 1544 1544 1545 1545 1545 1545 1545 1545 1545 1545 1545 1545 1546 1546 1546 1546 1546 1545 1545 1545 1545 1544 1544 1543 1543
1518 1520 1521 1520 1521 1523 1522 1523 1523 1525 1527 1528 1529 1531 1532 1533 1535 1536 1537 1538 1539 1540 1542 1542 1543 1543 1544 1544 1544 1544 1545 1545 1545 1545 1545 1545 1545 1545 1545 1545 1545 1545 1545 1545 1545 1544 1544 1543 1543
1519 1520 1520 1520 1521 1522 1521 1521 1521 1523 1525 1527 1528 1529 1530 1532 1533 1534 1535 1537 1538 1539 1540 1541 1541 1542 1542 1543 1543 1544 1544 1544 1544 1544 1544 1545 1545 1545 1544 1545 1544 1544 1544 1544 1544 1544 1544 1543 1543
1520 1520 1519 1521 1521 1520 1522 1521 1519 1521 1524 1526 1527 1528 1529 1530 1531 1532 1534 1535 1536 1537 1538 1539 1540 1541 1541 1541 1542 1543 1543 1543 1544 1543 1543 1544 1544 1543 1543 1543 1543 1543 1544 1544 1543 1543 1543 1543 1543
1520 1518 1519 1521 1522 1520 1521 1522 1515 1517 1521 1523 1525 1526 1528 1529 1529 1530 1531 1533 1534 1534 1536 1537 1538 1539 1539 1540 1541 1541 1542 1542 1542 1543 1543 1543 1543 1543 1542 1542 1542 1542 1542 1542 1542 1542 1542 1542 1542
1518 1519 1519 1520 1519 1520 1518 1520 1513 1514 1517 1519 1522 1524 1526 1527 1528 1528 1529 1530 1532 1533 1533 1535 1536 1537 1538 1538 1539 1540 1541 1541 1542 1542 1542 1542 1542 1542 1541 1541 1541 1541 1541 1541 1541 1541 1541 1541 1541
1520 1520 1519 1518 1519 1525 1517 1519 1515 1511 1514 1516 1520 1523 1524 1526 1526 1526 1527 1528 1530 1530 1531 1532 1534 1535 1535 1536 1537 1538 1539 1539 1540 1540 1540 1541 1541 1540 1540 1540 1540 1539 1539 1539 1539 1539 1539 1539 1539
1518 1520 1525 1526 1525 1520 1515 1518 1515 1511 1514 1516 1518 1520 1523 1524 1525 1525 1526 1527 1528 1528 1529 1530 1531 1532 1533 1534 1535 1536 1537 1538 1538 1539 1539 1539 1539 1539 1539 1538 1538 1538 1538 1537 1537 1537 1537 1537 1537
1516 1517 1524 1528 1524 1517 1517 1516 1511 1513 1516 1517 1518 1519 1521 1522 1523 1524 1525 1525 1526 1527 1527 1528 1529 1530 1531 1532 1533 1534 1535 1536 1536 1537 1537 1538 1538 1537 1537 1537 1537 1536 1536 1536 1536 1536 1536 1536 1535
1516 1516 1515 1518 1518 1521 1513 1512 1511 1512 1514 1516 1517 1518 1519 1521 1522 1523 1524 1524 1525 1525 1526 1527 1527 1528 1529 1530 1531 1532 1532 1533 1534 1535 1535 1535 1536 1536 1536 1535 1535 1535 1534 1534 1534 1534 1534 1533 1533
1516 1515 1518 1519 1524 1523 1516 1513 1510 1510 1511 1513 1515 1516 1518 1519 1521 1522 1522 1523 1523 1524 1524 1525 1526 1527 1527 1528 1529 1529 1530 1531 1531 1532 1533 1533 1533 1534 1534 1534 1533 1533 1533 1532 1532 1532 1532 1532 1531
1518 1518 1516 1516 1516 1520 1520 1513 1504 1507 1509 1511 1513 1515 1516 1518 1519 1520 1521 1521 1522 1522 1523 1523 1524 1524 1525 1526 1526 1527 1528 1528 1529 1530 1530 1531 1531 1531 1531 1531 1531 1531 1531 1531 1531 1530 1530 1530 1530
1515 1515 1516 1520 1518 1516 1517 1513 1505 1507 1509 1511 1512 1514 1515 1516 1518 1519 1519 1520 1520 1521 1521 1522 1522 1522 1522 1523 1524 1525 1525 1526 1527 1527 1528 1528 1529 1529 1529 1529 1529 1529 1529 1529 1529 1528 1528 1528 1528